CFB Borden, Ontario

Past 24 Hour Conditions

This table is a summary of hourly weather conditions for the past 24 hours. This summary includes the following parameters: temperature, humidity, dew point, wind speed and direction, air pressure, visibility and/or wind chill and humidex.
Date / Time
(EDT)
Conditions Temp (°C) Humidity (%) Dew Point (°C) Wind (km/h) Pressure (kPa) Visibility (km)
23 April 2014
7:00 Cloudy 1   90 -1 NNW 22 gust 41 101.3 15
6:00 Light Precipitation 1   94 0 NW 22 gust 32 101.2 15
5:00 Light Precipitation 1   97 0 NW 17 gust 44 101.1 15
4:00 Light Precipitation 1   98 1 NNW 20 gust 33 101.0 15
3:00 Light Precipitation 1   97 1 NW 22 gust 32 100.9 15
2:00 Light Precipitation 1   98 1 NW 17 gust 32 100.9 10
1:00 Light Precipitation 1   97 1 NW 19 gust 37 100.8 8
00:00 Light Drizzle 2 96 2 NW 26 gust 35 100.8 11
22 April 2014
23:00 Cloudy 3 92 2 NW 19 gust 35 100.7 15
22:00 Light Drizzle 4 88 2 NW 22 gust 35 100.7 15
21:00 Cloudy 5 79 2 NW 20 gust 32 100.5 15
20:00 Cloudy 5 84 3 WNW 11 100.5 15
19:00 Cloudy 5 84 3 WNW 17 100.4 15
18:00 Cloudy 6 77 2 WNW 30 100.4 15
17:00 Cloudy 5 78 2 WNW 24 gust 37 100.5 15
16:00 Cloudy 8 74 3 W 22 gust 44 100.4 15
15:00 Cloudy 8 77 4 WNW 19 gust 32 100.3 15
14:00 Cloudy 8 80 5 WNW 20 gust 30 100.3 15
13:00 Cloudy 6 99 6 NNW 11 100.3 15
12:00 Light Rain 6 99 5 NNE 7 100.3 15
11:00 Light Drizzle 5 100 5 NW 9 100.3 3
10:00 Cloudy 6 100 6 NNW 9 100.2 1
9:00 Light Rain 7 100 7 NNW 13 100.3 6
8:00 Cloudy 8 100 8 NNW 7 100.2 1
7:00 Light Rain 9   100 9 NNW 15 100.2 1
N/A
Not available
 ↑ 
Highest temperature
 ↓ 
Lowest temperature

If you require additional historical weather information, please visit Climate Data Online.